Location: Voyageurs National Park
(48.5020°N, 92.9292°W)
Time: 09:23:02
(UTC-06:00)

PCSat - Visible Passes

Search period start: 09 December 2016 00:00
Search period end: 19 December 2016 00:00
Orbit: 786 x 794 km, 67.1° (Epoch: 08 December)

Date Brightness Start Highest point End Pass type
(mag) Time Alt. Az. Time Alt. Az. Time Alt. Az.
09 Dec 10.6 17:54:37 10° NNW 17:59:04 25° NE 17:59:58 24° NE visible
09 Dec 10.8 19:37:39 10° NW 19:40:42 34° NW 19:40:42 34° NW visible
10 Dec 10.9 17:23:52 10° NNW 17:27:57 21° NNE 17:30:28 16° ENE visible
10 Dec 9.8 19:06:47 10° NNW 19:11:13 58° NNW 19:11:13 58° NNW visible
10 Dec 12.4 20:51:15 10° WNW 20:51:59 13° WNW 20:51:59 13° WNW visible
11 Dec 11.0 16:53:07 10° NNW 16:56:48 18° NNE 17:00:28 10° ENE visible
11 Dec 9.5 18:35:57 10° NNW 18:41:21 60° NE 18:41:55 56° E visible
11 Dec 11.7 20:19:56 10° NW 20:22:41 22° W 20:22:41 22° W visible
12 Dec 9.8 18:05:08 10° NNW 18:10:24 47° NE 18:12:52 28° ESE visible
12 Dec 10.9 19:48:48 10° NW 19:53:40 34° WSW 19:53:40 34° WSW visible
13 Dec 10.1 17:34:21 10° NNW 17:39:25 38° NE 17:44:13 11° ESE visible
13 Dec 10.5 19:17:46 10° NW 19:22:56 46° WSW 19:25:04 31° SSW visible
14 Dec 10.4 17:03:34 10° NNW 17:08:23 31° NE 17:13:10 10° ESE visible
14 Dec 10.0 18:46:48 10° NW 18:52:09 61° WSW 18:57:16 11° SSE visible
15 Dec 9.6 18:15:53 10° NW 18:21:20 80° WSW 18:26:45 10° SSE visible
15 Dec 12.4 20:01:16 10° WNW 20:03:51 14° WSW 20:06:26 10° SW visible
16 Dec 9.5 17:45:01 10° NNW 17:50:29 80° NE 17:55:54 10° SE visible
16 Dec 12.1 19:29:34 10° WNW 19:33:14 19° WSW 19:36:52 10° SSW visible
17 Dec 9.6 17:14:10 10° NNW 17:19:34 62° NE 17:24:57 10° SE visible
17 Dec 11.8 18:58:13 10° NW 19:02:34 25° WSW 19:06:53 10° SSW visible
18 Dec 9.8 16:43:21 10° NNW 16:48:38 49° NE 16:53:53 10° ESE visible
18 Dec 11.3 18:27:04 10° NW 18:31:52 33° WSW 18:36:39 10° S visible
